Погода в Голберне

Австралия     34°45′24″S   149°42′59″E
темп.,
°C
ветер,
м/с
пор.,
м/с
влажн.,
%
обл.,
%
осадки,
мм/ч
давл.,
гПа
погр.,
м
18 апреля, вс
вс1801:00+6в119925 0.0 102410
04:00+5с119813 0.0 102310
07:00+6сз11974 0.0 102310
10:00+14ссз12660 0.0 1021712
13:00+17з33443 0.0 10181508
16:00+16з33430 0.0 10181207
19:00+9зсз22600 0.0 102023
22:00+6с11710 0.0 102110
19 апреля, пн
пн1901:00+5сз22795 0.0 102010
04:00+5сз22805 0.0 102012
07:00+5зсз22775 0.0 102029
10:00+14зсз46455 0.0 1018677
13:00+17зсз673944 0.0 10161116
16:00+16з58512 0.0 10151138
19:00+9зсз3117298 0.0 1017233
22:00+8зсз3108084 0.0 1017187
20 апреля, вт
вт2001:00+9зсз4117440 0.0 1016335
04:00+6зсз311870 0.0 1016219
07:00+6зсз311860 0.0 1017258
10:00+14з813554 0.0 10151254
13:00+17з9134510 0.0 10121884
16:00+16зсз7144999 0.0 10102327
19:00+14зсз8164910 0.0 10111438
22:00+12зюз6125390 0.0 1012672
21 апреля, ср
ср2101:00+8з6147895 0.0 1013663
04:00+5зюз499634 0.0 1016345
07:00+3з22966 0.0 101851
10:00+10ю23450 0.0 1017812
13:00+14юз11400 0.0 10151236
16:00+14зсз34400 0.0 10141355
19:00+7зсз37600 0.0 101797
22:00+5зсз310710 0.0 1018197
22 апреля, чт
чт2201:00+4зсз513690 0.0 1017332
04:00+4з614640 0.0 1016475
07:00+4з615640 0.0 1016474
10:00+10з813467 0.0 1015928
13:00+13з913430 0.0 10121250
16:00+13з712490 0.0 10111251
19:00+8з513610 0.0 1014452
22:00+8з715610 0.0 1015589